Location: Indian Springs
(36.5700°N, 115.6700°W)
Time: 04:23:42
(UTC-07:00)

Amateur Radio Satellites - All Passes

Search period start: 28 June 2016 03:53
Search period end: 29 June 2016 03:53
Location: Indian Springs, 36.5700°N, 115.6700°W

Satellite Date Start Highest point End Downlink Frequencies (MHz)
Time Altitude Azimuth
CUBESAT XI-V 28 Jun 03:56:03 03:56:15 10° 63° (ENE) 03:56:27 437.345
O/OREOS (USA 219) 28 Jun 03:59:45 04:02:53 18° 301° (WNW) 04:06:01 437.305
MOZHAYETS 4 28 Jun 04:02:11 04:06:48 73° 259° (WSW) 04:11:26
PCSat 28 Jun 04:07:40 04:10:09 13° 315° (NW) 04:12:39 145.827
KKS-1 28 Jun 04:16:32 04:20:42 41° 261° (W) 04:24:54 437.445
Gurwin Techsat 1B 28 Jun 04:33:44 04:35:34 12° 299° (WNW) 04:37:23 435.225
AO-7 28 Jun 04:34:58 04:43:23 80° 107° (ESE) 04:51:45 29.400- 29.500
ITAMSAT 1 28 Jun 04:40:26 04:44:43 26° 293° (WNW) 04:48:59 435.822/435.867
STARS 28 Jun 04:50:24 04:54:22 34° 262° (W) 04:58:21 437.465
GONETS M04 28 Jun 05:05:28 05:13:35 41° 75° (ENE) 05:21:42
Cosmos 2499 28 Jun 05:22:55 05:30:48 36° 73° (ENE) 05:38:13 435.465 / 435.565
AIST 1 28 Jun 05:23:30 05:26:38 20° 272° (W) 05:29:46
CUBESAT XI-V 28 Jun 05:28:14 05:32:57 78° 257° (WSW) 05:37:40 437.345
AIST 2 28 Jun 05:28:47 05:32:44 46° 303° (WNW) 05:36:44 435.215
HORYU 2 28 Jun 05:34:59 05:39:30 78° 103° (ESE) 05:43:58 437.375
CUTE-I 28 Jun 05:39:54 05:41:15 11° 90° (E) 05:42:36 437.470
BRITE-PL 28 Jun 05:44:29 05:46:37 14° 93° (E) 05:48:45 437.365/2234.400
AO-85 28 Jun 05:51:18 05:54:47 21° 48° (NE) 05:58:03 145.980
NOAA 15 28 Jun 06:06:59 06:11:36 31° 97° (E) 06:16:10 137.62
PHONESAT 2.4 28 Jun 06:08:08 06:10:42 25° 149° (SSE) 06:13:17 2401.200-2431.200
GOMX 1 28 Jun 06:20:07 06:22:42 16° 94° (E) 06:25:22 467.674
AO-7 28 Jun 06:29:15 06:35:13 22° 304° (NW) 06:41:11 29.400- 29.500
NOAA 18 28 Jun 06:32:43 06:37:59 43° 100° (E) 06:43:14 137.9125
STRAND 1 28 Jun 06:37:31 06:42:14 39° 71° (ENE) 06:46:59 437.568
CUSAT 1 28 Jun 06:40:41 06:47:34 34° 91° (E) 06:53:40 437.405
Cubesat XI-IV 28 Jun 06:42:02 06:47:15 49° 100° (E) 06:52:25 437.490
DANDE 28 Jun 06:59:14 07:05:43 26° 86° (E) 07:11:59 436.750
LilacSat-2 28 Jun 07:01:22 07:05:16 89° 105° (ESE) 07:09:09 437.200
GONETS M04 28 Jun 07:02:25 07:10:15 39° 273° (W) 07:18:07
Cosmos 2499 28 Jun 07:15:51 07:24:01 46° 272° (W) 07:31:41 435.465 / 435.565
CUTE-I 28 Jun 07:16:26 07:21:50 78° 285° (WNW) 07:27:11 437.470
DOVE 4 28 Jun 07:21:24 07:25:26 36° 98° (E) 07:29:39 437.250
BRITE-PL 28 Jun 07:21:26 07:25:17 38° 287° (WNW) 07:29:10 437.365/2234.400
AO-85 28 Jun 07:31:23 07:35:19 33° 248° (WSW) 07:38:59 145.980
PHONESAT 2.4 28 Jun 07:44:06 07:47:09 65° 344° (NNW) 07:50:13 2401.200-2431.200
CANX-2 28 Jun 07:45:28 07:48:21 17° 94° (E) 07:51:11 2200.000
NOAA 15 28 Jun 07:46:47 07:51:15 29° 292° (WNW) 07:55:41 137.62
GOMX 1 28 Jun 07:57:02 08:00:54 36° 287° (WNW) 08:04:54 467.674
CUTE 1.7 + AOD 2 28 Jun 08:04:58 08:08:32 25° 96° (E) 08:12:04 437.475
SEEDS 28 Jun 08:09:59 08:13:09 20° 94° (E) 08:16:17 437.485
NOAA 18 28 Jun 08:14:01 08:18:20 24° 295° (WNW) 08:22:38 137.9125
HO-68 28 Jun 08:17:19 08:24:09 44° 100° (E) 08:30:55 435.675
STRAND 1 28 Jun 08:17:34 08:21:29 22° 265° (W) 08:25:26 437.568
CINEMA 3 28 Jun 08:19:44 08:24:09 47° 99° (E) 08:28:45 145.822/145.860
CUBEBUG 2 28 Jun 08:21:08 08:23:37 14° 92° (E) 08:26:06 437.445
CUSAT 1 28 Jun 08:22:03 08:29:29 44° 282° (WNW) 08:35:57 437.405
Cubesat XI-IV 28 Jun 08:23:06 08:26:55 20° 295° (WNW) 08:30:42 437.490
DANDE 28 Jun 08:39:40 08:48:01 67° 281° (W) 08:55:56 436.750
ISS 28 Jun 08:40:11 08:43:25 83° 317° (NW) 08:46:41 145.825
PRISM 28 Jun 08:41:45 08:45:53 65° 259° (WSW) 08:50:01 437.425
ZACube-1 28 Jun 08:49:35 08:51:30 12° 91° (E) 08:53:24 437.345
AAUSAT CUBESAT 2 28 Jun 08:49:41 08:53:26 32° 97° (E) 08:57:09 437.432
Oscar 11 28 Jun 08:59:27 09:02:11 16° 93° (E) 09:04:55 145.826/435.025
DOVE 4 28 Jun 08:59:57 09:02:54 18° 291° (WNW) 09:05:56 437.250
FUNcube-1 28 Jun 09:06:15 09:09:25 18° 94° (E) 09:12:35 145.935
UWE-3 28 Jun 09:07:56 09:12:03 32° 97° (E) 09:16:12 435.000/436.395/437.385
M-CUBED/EXP-1 PRIME 28 Jun 09:14:48 09:18:18 29° 103° (ESE) 09:22:01 437.505
CANX-2 28 Jun 09:20:23 09:24:15 34° 288° (WNW) 09:28:06 2200.000
PHONESAT 2.4 28 Jun 09:21:08 09:24:01 37° 0° (N) 09:26:55 2401.200-2431.200
TIGRISAT 28 Jun 09:21:09 09:23:57 17° 67° (ENE) 09:26:48 435.000
COMPASS 1 28 Jun 09:23:08 09:27:19 74° 283° (WNW) 09:31:27 437.405
UNISAT 6 28 Jun 09:25:42 09:28:55 21° 68° (ENE) 09:32:10 437.425
CUTE 1.7 + AOD 2 28 Jun 09:40:50 09:44:14 23° 290° (WNW) 09:47:37 437.475
SEEDS 28 Jun 09:45:11 09:48:49 28° 289° (WNW) 09:52:26 437.485
CUBEBUG 2 28 Jun 09:55:57 10:00:26 50° 286° (WNW) 10:04:59 437.445
CINEMA 3 28 Jun 09:58:11 10:00:55 16° 293° (WNW) 10:03:44 145.822/145.860
ANTELSAT 28 Jun 10:04:20 10:08:32 57° 75° (ENE) 10:12:50 437.575/2403.000
HUMSAT D 28 Jun 10:04:24 10:07:25 18° 94° (E) 10:10:25 437.325/437.525
HO-68 28 Jun 10:05:22 10:11:37 33° 296° (WNW) 10:17:51 435.675
AUBIESAT-1 28 Jun 10:09:46 10:13:43 72° 288° (WNW) 10:17:58 437.475
ISS 28 Jun 10:18:39 10:20:18 13° 336° (NNW) 10:21:57 145.825
ZACube-1 28 Jun 10:23:35 10:28:03 55° 285° (WNW) 10:32:31 437.345
AAUSAT CUBESAT 2 28 Jun 10:25:50 10:28:39 18° 292° (WNW) 10:31:27 437.432
Cosmos 2491 28 Jun 10:28:31 10:34:25 20° 67° (ENE) 10:40:18 435.465 / 435.565
DANDE 28 Jun 10:28:40 10:32:00 13° 297° (WNW) 10:35:15 436.750
Oscar 11 28 Jun 10:34:24 10:38:26 37° 288° (WNW) 10:42:26 145.826/435.025
DELFI C3 28 Jun 10:38:42 10:42:42 72° 284° (WNW) 10:46:37 145.870
FUNcube-1 28 Jun 10:41:33 10:45:44 37° 288° (WNW) 10:49:56 145.935
UWE-3 28 Jun 10:44:44 10:48:18 23° 291° (WNW) 10:51:53 435.000/436.395/437.385
M-CUBED/EXP-1 PRIME 28 Jun 10:49:45 10:52:40 20° 294° (WNW) 10:55:44 437.505
RS-15 28 Jun 10:50:00 11:00:09 41° 106° (ESE) 11:10:47 29.354- 29.394
TIGRISAT 28 Jun 10:56:24 11:00:20 36° 262° (W) 11:04:21 435.000
BEESAT 3 28 Jun 10:56:46 10:59:56 22° 52° (NE) 11:03:05 437.485
PHONESAT 2.4 28 Jun 10:57:49 11:00:53 69° 17° (NNE) 11:03:57 2401.200-2431.200
BUGSAT 1 28 Jun 11:01:06 11:03:16 14° 67° (ENE) 11:05:25 437.445
UNISAT 6 28 Jun 11:01:40 11:05:25 29° 263° (W) 11:09:15 437.425
PCSat 28 Jun 11:11:01 11:16:13 44° 58° (ENE) 11:21:21 145.827
NANOSAT C BR1 28 Jun 11:16:43 11:20:48 57° 75° (ENE) 11:24:55 145.865
QB50P1 28 Jun 11:19:31 11:23:39 66° 76° (ENE) 11:27:50 145.935-145.965
POPSAT HIP 1 28 Jun 11:22:42 11:26:51 71° 76° (ENE) 11:31:03 437.405
50 SAT 28 Jun 11:24:00 11:25:46 13° 93° (E) 11:27:33 437.505
ESTCUBE 1 28 Jun 11:26:23 11:30:09 26° 96° (E) 11:33:53 437.505/2401.250
AISAT 28 Jun 11:31:58 11:35:03 18° 95° (E) 11:38:07 437.250
BEESAT 2 28 Jun 11:33:53 11:37:27 30° 54° (NE) 11:40:59 435.950
QB50P2 28 Jun 11:34:57 11:39:08 75° 259° (W) 11:43:21 145.880/145.840
UKube-1 28 Jun 11:35:21 11:36:08 10° 92° (E) 11:36:56 .
DUCHIFAT 1 28 Jun 11:37:19 11:41:29 85° 257° (WSW) 11:45:40 145.980
POLYITAN 1 28 Jun 11:37:35 11:41:45 73° 258° (WSW) 11:45:58 437.675
HUMSAT D 28 Jun 11:39:12 11:43:04 33° 288° (WNW) 11:46:55 437.325/437.525
ANTELSAT 28 Jun 11:45:05 11:45:37 10° 270° (W) 11:46:09 437.575/2403.000
JAS-2 28 Jun 11:49:04 11:56:08 41° 69° (ENE) 12:02:38 435.910
DX 1 28 Jun 11:52:28 11:55:55 23° 96° (E) 11:59:20 434.975-435.025
YUBILEINY 28 Jun 12:06:06 12:13:54 39° 87° (E) 12:21:46 435.215
Oscar 19 28 Jun 12:16:19 12:19:52 19° 65° (ENE) 12:23:25 437.125/150
CUBEBUG 1 28 Jun 12:18:52 12:23:11 70° 102° (ESE) 12:27:29 437.445
Cosmos 2491 28 Jun 12:23:29 12:32:11 79° 266° (W) 12:40:53 435.465 / 435.565
VELOX 1 28 Jun 12:26:25 12:30:49 77° 102° (ESE) 12:35:12 145.980
O/OREOS (USA 219) 28 Jun 12:31:17 12:35:38 48° 66° (ENE) 12:39:59 437.305
Gurwin Techsat 1B 28 Jun 12:33:46 12:35:42 12° 61° (ENE) 12:37:37 435.225
BEESAT 3 28 Jun 12:34:13 12:37:34 27° 248° (WSW) 12:40:55 437.485
BUGSAT 1 28 Jun 12:34:33 12:38:17 38° 261° (W) 12:42:03 437.445
PHONESAT 2.4 28 Jun 12:34:48 12:37:19 23° 212° (SSW) 12:39:50 2401.200-2431.200
PCSat 28 Jun 12:55:09 12:59:16 22° 254° (WSW) 13:03:22 145.827
50 SAT 28 Jun 12:56:13 12:59:33 32° 288° (WNW) 13:02:49 437.505
TISAT 1 28 Jun 12:56:31 12:59:07 16° 94° (E) 13:01:42 437.305
RS-15 28 Jun 13:01:00 13:12:07 56° 308° (NW) 13:23:56 29.354- 29.394
ESTCUBE 1 28 Jun 13:03:09 13:06:51 25° 291° (WNW) 13:10:31 437.505/2401.250
AISAT 28 Jun 13:07:37 13:11:34 33° 289° (WNW) 13:15:30 437.250
UKube-1 28 Jun 13:08:16 13:12:29 56° 286° (WNW) 13:16:42 .
SPROUT 28 Jun 13:10:00 13:14:17 77° 284° (WNW) 13:18:33 437.525
BEESAT 2 28 Jun 13:12:10 13:15:04 19° 249° (WSW) 13:17:58 435.950
Cosmos 2504 28 Jun 13:19:52 13:26:55 35° 85° (E) 13:34:25 435.465 / 435.565
DX 1 28 Jun 13:28:24 13:32:02 27° 290° (WNW) 13:35:40 434.975-435.025
JAS-2 28 Jun 13:34:01 13:41:02 37° 263° (W) 13:47:36 435.910
AO-7 28 Jun 13:42:29 13:47:35 18° 53° (NE) 13:52:40 29.400- 29.500
ITUPSAT 1 28 Jun 13:47:40 13:47:57 10° 91° (E) 13:48:14 437.325
AIST 2 28 Jun 13:52:11 13:56:14 49° 57° (ENE) 14:00:16 435.215
Oscar 19 28 Jun 13:53:51 13:58:48 47° 260° (W) 14:03:45 437.125/150
YUBILEINY 28 Jun 14:02:29 14:10:32 41° 285° (WNW) 14:18:42 435.215
Gurwin Techsat 1B 28 Jun 14:09:35 14:14:54 81° 258° (WSW) 14:20:15 435.225
O/OREOS (USA 219) 28 Jun 14:12:29 14:14:33 13° 261° (W) 14:16:37 437.305
ITAMSAT 1 28 Jun 14:16:10 14:21:01 41° 71° (ENE) 14:25:53 435.822/435.867
Cosmos 2491 28 Jun 14:24:22 14:27:29 12° 284° (WNW) 14:30:37 435.465 / 435.565
TISAT 1 28 Jun 14:31:00 14:34:52 36° 288° (WNW) 14:38:43 437.305
SO-50 28 Jun 14:33:02 14:35:48 15° 108° (ESE) 14:38:35 436.795
SWISSCUBE 28 Jun 14:55:06 14:59:54 69° 102° (ESE) 15:04:39 437.505
ISS 28 Jun 15:09:59 15:13:04 38° 35° (NE) 15:16:09 145.825
Cosmos 2504 28 Jun 15:12:24 15:20:00 44° 284° (WNW) 15:28:10 435.465 / 435.565
RS-15 28 Jun 15:20:09 15:28:13 20° 337° (NNW) 15:36:32 29.354- 29.394
BEESAT 28 Jun 15:20:25 15:25:12 71° 286° (WNW) 15:29:57 436.000
ITUPSAT 1 28 Jun 15:21:26 15:26:14 71° 285° (WNW) 15:30:59 437.325
AO-7 28 Jun 15:30:48 15:39:08 85° 72° (ENE) 15:47:32 29.400- 29.500
AIST 2 28 Jun 15:32:26 15:34:15 13° 252° (WSW) 15:36:04 435.215
JUGNU 28 Jun 15:38:32 15:41:24 14° 172° (S) 15:44:16 437.505
ITAMSAT 1 28 Jun 15:56:42 16:00:35 21° 265° (W) 16:04:31 435.822/435.867
MOZHAYETS 4 28 Jun 15:59:59 16:04:07 31° 97° (E) 16:08:13
KKS-1 28 Jun 16:09:37 16:13:51 43° 99° (E) 16:18:05 437.445
SO-50 28 Jun 16:11:00 16:15:48 57° 303° (WNW) 16:20:38 436.795
AIST 1 28 Jun 16:13:05 16:16:00 18° 88° (E) 16:18:56
HORYU 2 28 Jun 16:30:25 16:34:41 51° 74° (ENE) 16:39:01 437.375
SWISSCUBE 28 Jun 16:35:22 16:37:03 12° 297° (WNW) 16:38:44 437.505
STARS 28 Jun 16:41:41 16:45:57 48° 100° (E) 16:50:13 437.465
ISS 28 Jun 16:47:03 16:49:18 17° 231° (SW) 16:51:33 145.825
BRITE-PL 28 Jun 16:52:44 16:55:49 17° 68° (ENE) 16:58:45 437.365/2234.400
SRMSAT 28 Jun 16:55:10 16:56:01 10° 167° (SSE) 16:56:53 437.500
CUTE-I 28 Jun 16:58:29 17:01:38 16° 63° (ENE) 17:04:47 437.470
NOAA 15 28 Jun 17:24:31 17:29:24 39° 70° (ENE) 17:34:17 137.62
JUGNU 28 Jun 17:26:19 17:29:37 15° 183° (S) 17:32:55 437.505
GOMX 1 28 Jun 17:26:41 17:29:11 15° 68° (ENE) 17:31:36 467.674
CUBESAT XI-V 28 Jun 17:27:40 17:31:46 31° 97° (E) 17:35:49 437.345
AO-7 28 Jun 17:27:41 17:32:43 17° 268° (W) 17:37:49 29.400- 29.500
MOZHAYETS 4 28 Jun 17:37:29 17:41:05 23° 292° (WNW) 17:44:39
RS-15 28 Jun 17:40:13 17:47:42 17° 15° (NNE) 17:55:13 29.354- 29.394
LilacSat-2 28 Jun 17:41:13 17:44:29 28° 72° (ENE) 17:47:47 437.200
KKS-1 28 Jun 17:47:23 17:50:03 16° 294° (WNW) 17:52:43 437.445
AIST 1 28 Jun 17:49:30 17:53:20 30° 282° (WNW) 17:57:10
Cosmos 2499 28 Jun 17:56:14 18:03:05 30° 83° (E) 18:10:15 435.465 / 435.565
NOAA 18 28 Jun 17:56:32 18:01:55 64° 73° (ENE) 18:07:22 137.9125
Cubesat XI-IV 28 Jun 18:01:29 18:06:45 63° 74° (ENE) 18:12:04 437.490
GONETS M04 28 Jun 18:03:09 18:11:28 52° 90° (E) 18:19:45
HORYU 2 28 Jun 18:09:44 18:11:31 12° 268° (W) 18:13:19 437.375
STARS 28 Jun 18:19:36 18:21:52 14° 295° (WNW) 18:24:09 437.465
DOVE 4 28 Jun 18:25:10 18:28:48 26° 71° (ENE) 18:32:19 437.250
BRITE-PL 28 Jun 18:28:59 18:33:58 49° 260° (W) 18:38:36 437.365/2234.400
CUTE-I 28 Jun 18:35:51 18:41:06 61° 258° (WSW) 18:46:25 437.470
SRMSAT 28 Jun 18:41:08 18:44:22 15° 177° (S) 18:47:35 437.500
HO-68 28 Jun 18:44:14 18:49:53 26° 62° (ENE) 18:55:33 435.675
STRAND 1 28 Jun 18:51:41 18:54:45 16° 93° (E) 18:57:48 437.568
CUTE 1.7 + AOD 2 28 Jun 18:56:25 18:58:43 14° 67° (ENE) 19:01:01 437.475
SEEDS 28 Jun 19:01:17 19:02:32 11° 65° (ENE) 19:03:47 437.485
CUSAT 1 28 Jun 19:02:08 19:05:27 44° 266° (W) 19:08:09 437.405
GOMX 1 28 Jun 19:02:26 19:06:57 46° 260° (W) 19:11:13 467.674
NOAA 15 28 Jun 19:05:09 19:09:15 23° 265° (W) 19:13:22 137.62
CUBESAT XI-V 28 Jun 19:05:22 19:08:57 23° 292° (WNW) 19:12:31 437.345
LilacSat-2 28 Jun 19:16:30 19:18:49 16° 266° (W) 19:21:09 437.200
JUGNU 28 Jun 19:16:46 19:17:49 10° 193° (SSW) 19:18:50 437.505
CINEMA 3 28 Jun 19:19:44 19:23:18 28° 71° (ENE) 19:26:53 145.822/145.860
DANDE 28 Jun 19:25:39 19:30:24 88° 268° (W) 19:33:55 436.750
AAUSAT CUBESAT 2 28 Jun 19:38:23 19:41:04 17° 68° (ENE) 19:43:44 437.432
NOAA 18 28 Jun 19:40:09 19:42:59 14° 268° (W) 19:45:50 137.9125
Cubesat XI-IV 28 Jun 19:44:29 19:47:13 14° 268° (W) 19:49:58 437.490
Cosmos 2499 28 Jun 19:47:38 19:55:38 54° 282° (WNW) 20:04:12 435.465 / 435.565
RS-15 28 Jun 19:53:14 20:04:51 44° 47° (NE) 20:16:19 29.354- 29.394
M-CUBED/EXP-1 PRIME 28 Jun 20:00:31 20:02:57 19° 65° (ENE) 20:05:22 437.505
GONETS M04 28 Jun 20:01:04 20:08:31 31° 288° (WNW) 20:16:00
DOVE 4 28 Jun 20:03:06 20:06:28 22° 264° (W) 20:09:45 437.250
UWE-3 28 Jun 20:03:35 20:06:25 18° 68° (ENE) 20:09:18 435.000/436.395/437.385
AO-85 28 Jun 20:03:37 20:06:43 16° 107° (ESE) 20:09:47 145.980
CANX-2 28 Jun 20:09:53 20:14:08 67° 259° (W) 20:18:26 2200.000
COMPASS 1 28 Jun 20:11:02 20:15:07 51° 75° (ENE) 20:19:13 437.405
PRISM 28 Jun 20:26:35 20:29:31 19° 95° (E) 20:32:27 437.425
STRAND 1 28 Jun 20:29:12 20:34:12 53° 287° (WNW) 20:39:11 437.568
SRMSAT 28 Jun 20:29:56 20:32:43 13° 188° (S) 20:35:30 437.500
CUTE 1.7 + AOD 2 28 Jun 20:30:04 20:34:09 44° 261° (W) 20:38:16 437.475
HO-68 28 Jun 20:30:07 20:37:06 57° 258° (WSW) 20:44:10 435.675
SEEDS 28 Jun 20:33:31 20:37:41 57° 260° (W) 20:41:54 437.485
CUBEBUG 2 28 Jun 20:51:30 20:55:39 81° 259° (W) 20:59:54 437.445
AUBIESAT-1 28 Jun 20:54:22 20:57:40 85° 252° (WSW) 21:01:00 437.475
CINEMA 3 28 Jun 20:57:33 21:00:28 19° 266° (W) 21:03:24 145.822/145.860
AAUSAT CUBESAT 2 28 Jun 21:12:23 21:16:14 35° 262° (W) 21:20:07 437.432
ZACube-1 28 Jun 21:16:40 21:20:50 85° 77° (ENE) 21:25:08 437.345
DELFI C3 28 Jun 21:21:54 21:25:43 43° 74° (ENE) 21:29:34 145.870
Oscar 11 28 Jun 21:25:59 21:30:18 68° 259° (WSW) 21:34:39 145.826/435.025
FUNcube-1 28 Jun 21:34:10 21:38:18 63° 260° (W) 21:42:33 145.935
M-CUBED/EXP-1 PRIME 28 Jun 21:35:17 21:37:27 17° 259° (W) 21:39:38 437.505
UWE-3 28 Jun 21:38:52 21:42:36 32° 263° (W) 21:46:27 435.000/436.395/437.385
AO-85 28 Jun 21:41:18 21:46:43 67° 301° (WNW) 21:51:59 145.980
COMPASS 1 28 Jun 21:49:40 21:50:56 11° 269° (W) 21:52:13 437.405
ANTELSAT 28 Jun 21:59:28 22:02:18 16° 93° (E) 22:05:08 437.575/2403.000
PRISM 28 Jun 22:01:20 22:04:50 28° 289° (WNW) 22:08:17 437.425
RS-15 28 Jun 22:05:49 22:17:47 59° 249° (WSW) 22:29:33 29.354- 29.394
YUBILEINY 28 Jun 22:20:27 22:25:34 16° 64° (ENE) 22:30:39 435.215
ESTCUBE 1 28 Jun 22:24:04 22:27:15 19° 67° (ENE) 22:30:26 437.505/2401.250
HUMSAT D 28 Jun 22:27:17 22:31:24 66° 259° (WSW) 22:35:37 437.325/437.525
AISAT 28 Jun 22:28:13 22:30:16 13° 65° (ENE) 22:32:18 437.250
DX 1 28 Jun 22:46:33 22:49:07 16° 66° (ENE) 22:51:40 434.975-435.025
TIGRISAT 28 Jun 22:49:33 22:54:07 54° 100° (E) 22:58:43 435.000
UNISAT 6 28 Jun 22:54:44 22:59:23 66° 101° (E) 23:04:04 437.425
DELFI C3 28 Jun 22:59:12 23:00:47 12° 268° (W) 23:02:20 145.870
NANOSAT C BR1 28 Jun 23:05:57 23:07:08 11° 92° (E) 23:08:19 145.865
QB50P1 28 Jun 23:08:26 23:10:23 13° 92° (E) 23:12:19 145.935-145.965
POPSAT HIP 1 28 Jun 23:11:27 23:13:40 14° 93° (E) 23:15:52 437.405
CUBEBUG 1 28 Jun 23:12:18 23:16:23 41° 73° (ENE) 23:20:29 437.445
Cosmos 2504 28 Jun 23:19:06 23:20:51 11° 59° (ENE) 23:22:35 435.465 / 435.565
VELOX 1 28 Jun 23:21:07 23:25:21 48° 73° (ENE) 23:29:37 145.980
QB50P2 28 Jun 23:22:59 23:26:13 21° 95° (E) 23:29:26 145.880/145.840
DUCHIFAT 1 28 Jun 23:24:47 23:27:43 18° 94° (E) 23:30:38 145.980
POLYITAN 1 28 Jun 23:25:34 23:28:51 21° 95° (E) 23:32:08 437.675
AO-85 28 Jun 23:26:31 23:28:06 11° 319° (NW) 23:29:40 145.980
Cosmos 2491 28 Jun 23:27:09 23:33:44 24° 82° (E) 23:40:18 435.465 / 435.565
50 SAT 28 Jun 23:30:56 23:34:37 71° 75° (ENE) 23:38:20 437.505
ANTELSAT 28 Jun 23:34:43 23:39:10 45° 287° (WNW) 23:43:38 437.575/2403.000
ESTCUBE 1 28 Jun 23:59:34 00:03:45 36° 262° (W) 00:07:58 437.505/2401.250
UKube-1 28 Jun 23:59:54 00:04:13 86° 76° (ENE) 00:08:33 .
SPROUT 29 Jun 00:00:52 00:05:01 56° 74° (ENE) 00:09:10 437.525
AISAT 29 Jun 00:01:58 00:06:16 52° 260° (W) 00:10:34 437.250
YUBILEINY 29 Jun 00:14:43 00:23:36 88° 84° (E) 00:32:28 435.215
BUGSAT 1 29 Jun 00:18:27 00:22:10 32° 98° (E) 00:25:55 437.445
DX 1 29 Jun 00:20:49 00:24:56 42° 261° (W) 00:29:04 434.975-435.025
TIGRISAT 29 Jun 00:27:51 00:30:20 14° 295° (WNW) 00:32:48 435.000
UNISAT 6 29 Jun 00:33:49 00:35:31 12° 296° (WNW) 00:37:14 437.425
NANOSAT C BR1 29 Jun 00:39:00 00:43:08 52° 286° (WNW) 00:47:16 145.865
QB50P1 29 Jun 00:42:18 00:46:22 45° 286° (WNW) 00:50:26 145.935-145.965
SO-50 29 Jun 00:44:55 00:49:32 65° 58° (ENE) 00:54:00 436.795
POPSAT HIP 1 29 Jun 00:45:35 00:49:37 42° 287° (WNW) 00:53:39 437.405
JAS-2 29 Jun 00:47:07 00:52:04 34° 96° (E) 00:56:46 435.910
CUBEBUG 1 29 Jun 00:50:22 00:52:50 15° 267° (W) 00:55:18 437.445
ITUPSAT 1 29 Jun 00:52:48 00:53:05 10° 62° (ENE) 00:53:24 437.325
QB50P2 29 Jun 00:58:19 01:01:59 28° 289° (WNW) 01:05:39 145.880/145.840
DUCHIFAT 1 29 Jun 00:59:40 01:03:27 32° 289° (WNW) 01:07:14 145.980
VELOX 1 29 Jun 01:00:03 01:02:03 13° 268° (W) 01:04:04 145.980
POLYITAN 1 29 Jun 01:00:58 01:04:37 28° 289° (WNW) 01:08:16 437.675
Cosmos 2504 29 Jun 01:07:21 01:16:10 64° 80° (E) 01:24:32 435.465 / 435.565
TISAT 1 29 Jun 01:19:37 01:23:45 70° 259° (WSW) 01:27:55 437.305
Cosmos 2491 29 Jun 01:21:07 01:29:47 64° 279° (W) 01:38:29 435.465 / 435.565
SPROUT 29 Jun 01:41:02 01:41:16 10° 269° (W) 01:41:31 437.525
PCSat 29 Jun 01:49:49 01:55:10 67° 113° (ESE) 02:00:34 145.827
BUGSAT 1 29 Jun 01:54:34 01:57:17 17° 292° (WNW) 02:00:01 437.445
SWISSCUBE 29 Jun 01:58:54 02:03:36 60° 74° (ENE) 02:08:20 437.505
Oscar 19 29 Jun 02:07:34 02:12:42 75° 102° (ESE) 02:17:49 437.125/150
YUBILEINY 29 Jun 02:14:16 02:19:07 16° 282° (WNW) 02:23:58 435.215
BEESAT 3 29 Jun 02:21:41 02:25:36 88° 112° (ESE) 02:29:33 437.485
BEESAT 29 Jun 02:24:04 02:28:50 82° 256° (WSW) 02:33:39 436.000
ITUPSAT 1 29 Jun 02:25:24 02:30:12 81° 257° (WSW) 02:35:03 437.325
SO-50 29 Jun 02:27:59 02:29:23 11° 254° (WSW) 02:30:44 436.795
Gurwin Techsat 1B 29 Jun 02:28:23 02:33:34 49° 100° (E) 02:38:41 435.225
ITAMSAT 1 29 Jun 02:32:28 02:35:55 18° 93° (E) 02:39:20 435.822/435.867
JAS-2 29 Jun 02:32:31 02:36:59 25° 295° (WNW) 02:41:13 435.910
O/OREOS (USA 219) 29 Jun 02:40:49 02:45:19 86° 294° (WNW) 02:49:49 437.305
MOZHAYETS 4 29 Jun 02:59:46 03:03:24 23° 69° (ENE) 03:07:03
BEESAT 2 29 Jun 03:00:36 03:04:31 62° 302° (WNW) 03:08:28 435.950
Cosmos 2504 29 Jun 03:02:00 03:08:44 25° 278° (W) 03:15:17 435.465 / 435.565
KKS-1 29 Jun 03:05:27 03:09:16 29° 70° (ENE) 03:13:06 437.445
PCSat 29 Jun 03:35:30 03:39:03 17° 312° (NW) 03:42:38 145.827
AO-7 29 Jun 03:35:51 03:43:13 33° 98° (E) 03:50:30 29.400- 29.500
STARS 29 Jun 03:36:04 03:39:55 31° 71° (ENE) 03:43:46 437.465
SWISSCUBE 29 Jun 03:39:49 03:41:44 12° 268° (W) 03:43:40 437.505
Oscar 19 29 Jun 03:49:22 03:51:21 12° 298° (WNW) 03:53:19 437.125/150
